Easton, MD

6:33 PM EST on November 11, 2019 (GMT -0500)
Easton / Newnam

Weather History for KESN - September, 2019

Change the Weather History Date:

Wednesday, September 25, 2019

  Actual Average Record
Temperature  
Mean Temperature 68 °F -  
Max Temperature 80 °F 77 °F 93 °F (1970)
Min Temperature 55 °F 57 °F 37 °F (1963)
Cooling Degree Days 2    
Growing Degree Days 18 (Base 50)    
Moisture  
Dew Point 54 °F    
Average Humidity 70    
Maximum Humidity 94    
Minimum Humidity 30    
Precipitation  
Precipitation 0.00 in - - ()
Sea Level Pressure  
Sea Level Pressure 29.94 in    
Wind  
Wind Speed 1 mph (SW)    
Max Wind Speed 9 mph    
Max Gust Speed 16 mph    
Visibility 10 miles    
Events      
Averages and records for this station are not official NWS values.
T = Trace of Precipitation, MM = Missing Value Source: NWS Daily Summary

Daily Weather History Graph

Daily Weather History Graph

Search for Another Location

Airport or City:

Astronomy

Sep. 25, 2019 Rise Set
Actual Time 6:54 AM EDT 6:56 PM EDT
Civil Twilight 6:27 AM EDT 7:23 PM EDT
Nautical Twilight 5:56 AM EDT 7:54 PM EDT
Astronomical Twilight 5:25 AM EDT 8:25 PM EDT
Moon 2:48 AM EDT (9/25) 5:24 PM EDT (9/25)
Length of Visible Light 12h 55m
Length of Day
12h 02m
Waning Crescent, 14% of the Moon is Illuminated
Sep 25
Waning Crescent
Sep 28
New
Oct 5
First Quarter
Oct 13
Full
Oct 21
Last Quarter

Hourly Weather History & Observations

Time (EDT) Temp. Dew Point Humidity Pressure Visibility Wind Dir Wind Speed Gust Speed Precip Events Conditions
12:19 AM 61.2 °F 55.6 °F 82% 29.95 in 10.0 mi Calm Calm - N/A   Clear
12:39 AM 60.6 °F 55.6 °F 83% 29.94 in 10.0 mi Calm Calm - N/A   Clear
12:59 AM 60.6 °F 55.6 °F 83% 29.94 in 10.0 mi Calm Calm - N/A   Clear
1:19 AM 60.6 °F 54.9 °F 81% 29.94 in 10.0 mi Calm Calm - N/A   Clear
1:39 AM 59.5 °F 54.5 °F 83% 29.94 in 10.0 mi Calm Calm - N/A   Clear
1:59 AM 59.5 °F 55.6 °F 87% 29.94 in 10.0 mi Calm Calm - N/A   Clear
2:19 AM 59.9 °F 55.6 °F 86% 29.93 in 10.0 mi Calm Calm - N/A   Clear
2:39 AM 58.6 °F 55.0 °F 88% 29.93 in 10.0 mi Calm Calm - N/A   Clear
2:59 AM 58.1 °F 55.6 °F 91% 29.93 in 10.0 mi Calm Calm - N/A   Clear
3:19 AM 58.1 °F 55.4 °F 91% 29.93 in 10.0 mi Calm Calm - N/A   Clear
3:39 AM 58.1 °F 55.4 °F 91% 29.93 in 10.0 mi Calm Calm - N/A   Clear
3:59 AM 57.2 °F 54.5 °F 91% 29.93 in 10.0 mi Calm Calm - N/A   Clear
4:19 AM 58.1 °F 54.9 °F 89% 29.93 in 10.0 mi Calm Calm - N/A   Clear
4:39 AM 58.3 °F 55.4 °F 90% 29.94 in 10.0 mi Calm Calm - N/A   Clear
4:59 AM 57.0 °F 54.7 °F 92% 29.95 in 10.0 mi Calm Calm - N/A   Clear
5:19 AM 56.5 °F 54.7 °F 94% 29.95 in 10.0 mi Calm Calm - N/A   Clear
5:39 AM 57.2 °F 54.7 °F 91% 29.95 in 10.0 mi Calm Calm - N/A   Clear
5:50 AM 57.2 °F 53.6 °F 88% 29.96 in 10.0 mi Calm Calm - N/A   Clear
6:50 AM 55.4 °F 53.6 °F 94% 29.98 in 10.0 mi Calm Calm - N/A   Scattered Clouds
7:50 AM 59.0 °F 55.4 °F 88% 29.99 in 10.0 mi Calm Calm - N/A   Scattered Clouds
8:50 AM 66.2 °F 55.4 °F 68% 30.00 in 10.0 mi Calm Calm - N/A   Scattered Clouds
9:50 AM 71.6 °F 51.8 °F 50% 30.00 in 10.0 mi Calm Calm - N/A   Scattered Clouds
10:50 AM 75.2 °F 48.2 °F 38% 30.00 in 10.0 mi NNW 4.6 mph - N/A   Scattered Clouds
11:50 AM 78.8 °F 50.0 °F 36% 30.00 in 10.0 mi West 8.1 mph - N/A   Scattered Clouds
12:50 PM 78.8 °F 48.2 °F 34% 29.98 in 10.0 mi SW 6.9 mph 16.1 mph N/A   Scattered Clouds
1:50 PM 80.6 °F 46.4 °F 30% 29.95 in 10.0 mi WSW 9.2 mph - N/A   Partly Cloudy
2:58 PM 80.6 °F 48.2 °F 32% 29.92 in 10.0 mi West 5.8 mph - N/A   Clear
3:50 PM 80.6 °F 48.2 °F 32% 29.91 in 10.0 mi SSW 6.9 mph - N/A   Clear
4:50 PM 80.6 °F 48.2 °F 32% 29.90 in 10.0 mi SSW 6.9 mph - N/A   Clear
5:56 PM 80.6 °F 48.2 °F 32% 29.91 in 10.0 mi SSW 6.9 mph - N/A   Clear
6:56 PM 75.2 °F 51.8 °F 44% 29.91 in 10.0 mi Calm Calm - N/A   Clear
7:57 PM 71.6 °F 53.6 °F 53% 29.92 in 10.0 mi SSE 4.6 mph - N/A   Clear
8:50 PM 69.8 °F 55.4 °F 60% 29.92 in 10.0 mi South 6.9 mph - N/A   Clear
9:50 PM 66.2 °F 55.4 °F 68% 29.93 in 10.0 mi Calm Calm - N/A   Clear
10:19 PM 65.5 °F 55.4 °F 70% 29.93 in 10.0 mi Calm Calm - N/A   Clear
10:39 PM 65.8 °F 55.2 °F 69% 29.93 in 10.0 mi Calm Calm - N/A   Clear
10:59 PM 66.0 °F 54.7 °F 67% 29.93 in 10.0 mi Calm Calm - N/A   Clear
11:19 PM 64.8 °F 54.9 °F 70% 29.93 in 10.0 mi Calm Calm - N/A   Clear
11:39 PM 64.2 °F 55.2 °F 73% 29.93 in 10.0 mi Calm Calm - N/A   Clear
11:59 PM 65.1 °F 55.6 °F 71% 29.93 in 10.0 mi South 4.6 mph - N/A   Clear